Time,TemperatureF,DewpointF,PressureIn,WindDirection,WindDirectionDegrees,WindSpeedMPH,WindSpeedGustMPH,Humidity,HourlyPrecipIn,Conditions,Clouds,dailyrainin,SoftwareType,DateUTC
2013-04-21 00:01:00,46.0,43.0,30.24,SW,216,1.0,6.0,90,0.00,,,0.37,,2013-04-21 07:01:00,
2013-04-21 00:11:00,46.0,43.0,30.25,South,183,5.0,11.0,90,0.00,,,0.37,,2013-04-21 07:11:00,
2013-04-21 00:21:00,46.0,43.0,30.25,South,183,5.0,11.0,90,0.00,,,0.37,,2013-04-21 07:21:00,
2013-04-21 00:31:00,46.0,43.0,30.24,NNW,337,4.0,7.0,90,0.00,,,0.23,,2013-04-21 07:31:00,
2013-04-21 00:41:00,46.0,43.0,30.24,NNW,337,4.0,7.0,90,0.00,,,0.23,,2013-04-21 07:41:00,
2013-04-21 00:52:00,46.0,43.0,30.25,SSW,203,2.0,13.0,89,0.00,,,0.23,,2013-04-21 07:52:00,
2013-04-21 01:01:00,46.0,43.0,30.25,SSW,207,0.0,7.0,90,0.00,,,0.23,,2013-04-21 08:01:00,
2013-04-21 01:11:00,46.0,43.0,30.25,SSW,207,0.0,7.0,90,0.00,,,0.23,,2013-04-21 08:11:00,
2013-04-21 01:21:00,45.0,42.0,30.24,SW,227,3.0,7.0,89,0.00,,,0.23,,2013-04-21 08:21:00,
2013-04-21 01:31:00,45.0,42.0,30.25,SSW,206,1.0,6.0,90,0.00,,,0.08,,2013-04-21 08:31:00,
2013-04-21 01:41:00,45.0,42.0,30.25,SSW,206,1.0,6.0,90,0.00,,,0.08,,2013-04-21 08:41:00,
2013-04-21 01:52:00,45.0,43.0,30.24,SSW,205,1.0,5.0,91,0.00,,,0.08,,2013-04-21 08:52:00,
2013-04-21 02:01:00,45.0,43.0,30.24,SSW,200,1.0,4.0,91,0.00,,,0.08,,2013-04-21 09:01:00,
2013-04-21 02:11:00,45.0,43.0,30.24,SSW,200,1.0,4.0,91,0.00,,,0.08,,2013-04-21 09:11:00,
2013-04-21 02:21:00,45.0,43.0,30.24,South,173,2.0,4.0,91,0.00,,,0.08,,2013-04-21 09:21:00,
2013-04-21 02:32:00,45.0,43.0,30.24,SSW,202,0.0,5.0,91,0.00,,,0.02,,2013-04-21 09:32:00,
2013-04-21 02:42:00,45.0,43.0,30.24,SSW,202,0.0,5.0,91,0.00,,,0.02,,2013-04-21 09:42:00,
2013-04-21 02:53:00,45.0,43.0,30.23,South,173,3.0,9.0,92,0.00,,,0.02,,2013-04-21 09:53:00,
2013-04-21 03:02:00,45.0,43.0,30.23,SSW,202,0.0,5.0,92,0.00,,,0.02,,2013-04-21 10:02:00,
2013-04-21 03:12:00,45.0,43.0,30.23,SSW,202,0.0,5.0,92,0.00,,,0.02,,2013-04-21 10:12:00,
2013-04-21 03:22:00,45.0,43.0,30.23,South,171,1.0,4.0,92,0.00,,,0.02,,2013-04-21 10:22:00,
2013-04-21 03:32:00,45.0,43.0,30.23,SSW,192,0.0,5.0,92,0.00,,,0.02,,2013-04-21 10:32:00,
2013-04-21 03:42:00,45.0,43.0,30.23,SSW,192,0.0,5.0,92,0.00,,,0.02,,2013-04-21 10:42:00,
2013-04-21 03:52:00,45.0,43.0,30.23,SSW,193,0.0,8.0,92,0.00,,,0.02,,2013-04-21 10:52:00,
2013-04-21 04:02:00,44.0,42.0,30.23,South,169,0.0,7.0,92,0.00,,,0.02,,2013-04-21 11:02:00,
2013-04-21 04:11:00,44.0,42.0,30.23,South,169,0.0,7.0,92,0.00,,,0.02,,2013-04-21 11:11:00,
2013-04-21 04:22:00,44.0,42.0,30.23,South,175,0.0,7.0,92,0.00,,,0.02,,2013-04-21 11:22:00,
2013-04-21 04:33:00,44.0,42.0,30.22,South,185,1.0,6.0,92,0.00,,,0.02,,2013-04-21 11:33:00,
2013-04-21 04:42:00,44.0,42.0,30.22,South,185,1.0,6.0,92,0.00,,,0.02,,2013-04-21 11:42:00,
2013-04-21 04:52:00,44.0,42.0,30.22,SSW,206,2.0,7.0,92,0.00,,,0.02,,2013-04-21 11:52:00,
2013-04-21 05:02:00,44.0,42.0,30.22,South,185,1.0,4.0,92,0.00,,,0.02,,2013-04-21 12:02:00,
2013-04-21 05:12:00,44.0,42.0,30.22,South,185,1.0,4.0,92,0.00,,,0.02,,2013-04-21 12:12:00,
2013-04-21 05:22:00,44.0,42.0,30.22,SW,214,0.0,4.0,92,0.00,,,0.02,,2013-04-21 12:22:00,
2013-04-21 05:31:00,44.0,42.0,30.22,South,176,1.0,5.0,93,0.00,,,0.02,,2013-04-21 12:31:00,
2013-04-21 05:42:00,44.0,42.0,30.22,South,176,1.0,5.0,93,0.00,,,0.02,,2013-04-21 12:42:00,
2013-04-21 05:52:00,44.0,42.0,30.23,SSW,200,0.0,4.0,92,0.00,,,0.02,,2013-04-21 12:52:00,
2013-04-21 06:01:00,44.0,42.0,30.22,NNE,32,1.0,7.0,92,0.00,,,0.02,,2013-04-21 13:01:00,
2013-04-21 06:11:00,44.0,42.0,30.22,NNE,32,1.0,7.0,92,0.00,,,0.02,,2013-04-21 13:11:00,
2013-04-21 06:21:00,44.0,42.0,30.22,SSW,200,0.0,10.0,91,0.00,,,0.02,,2013-04-21 13:21:00,
2013-04-21 06:32:00,44.0,42.0,30.22,SSW,203,0.0,3.0,91,0.00,,,0.02,,2013-04-21 13:32:00,
2013-04-21 06:42:00,44.0,42.0,30.22,SSW,203,0.0,3.0,91,0.00,,,0.02,,2013-04-21 13:42:00,
2013-04-21 06:52:00,44.0,42.0,30.22,South,188,1.0,5.0,91,0.00,,,0.02,,2013-04-21 13:52:00,
2013-04-21 07:01:00,44.0,42.0,30.22,SSE,168,0.0,3.0,91,0.00,,,0.02,,2013-04-21 14:01:00,
2013-04-21 07:11:00,44.0,42.0,30.22,SSE,168,0.0,3.0,91,0.00,,,0.02,,2013-04-21 14:11:00,
2013-04-21 07:21:00,44.0,42.0,30.22,SSW,207,1.0,7.0,91,0.00,,,0.02,,2013-04-21 14:21:00,
2013-04-21 07:31:00,44.0,42.0,30.22,South,189,0.0,4.0,92,0.00,,,0.02,,2013-04-21 14:31:00,
2013-04-21 07:42:00,44.0,42.0,30.22,South,189,0.0,4.0,92,0.00,,,0.02,,2013-04-21 14:42:00,
2013-04-21 07:52:00,44.0,42.0,30.22,South,184,0.0,5.0,92,0.00,,,0.02,,2013-04-21 14:52:00,
2013-04-21 08:01:00,44.0,42.0,30.22,SSW,205,1.0,5.0,92,0.00,,,0.02,,2013-04-21 15:01:00,
2013-04-21 08:11:00,44.0,42.0,30.22,SSW,205,1.0,5.0,92,0.00,,,0.02,,2013-04-21 15:11:00,
2013-04-21 08:22:00,44.0,42.0,30.22,SW,233,1.0,6.0,92,0.00,,,0.02,,2013-04-21 15:22:00,
2013-04-21 08:33:00,44.0,42.0,30.22,SW,221,2.0,8.0,92,0.00,,,0.02,,2013-04-21 15:33:00,
2013-04-21 08:42:00,44.0,42.0,30.22,SW,221,2.0,8.0,92,0.00,,,0.02,,2013-04-21 15:42:00,
2013-04-21 08:53:00,44.0,42.0,30.22,SW,234,2.0,4.0,91,0.00,,,0.02,,2013-04-21 15:53:00,
2013-04-21 09:03:00,45.0,43.0,30.22,SSW,197,1.0,5.0,91,0.00,,,0.02,,2013-04-21 16:03:00,
2013-04-21 09:12:00,45.0,43.0,30.22,SSW,197,1.0,5.0,91,0.00,,,0.02,,2013-04-21 16:12:00,
2013-04-21 09:22:00,45.0,42.0,30.21,South,190,1.0,4.0,90,0.00,,,0.02,,2013-04-21 16:22:00,
2013-04-21 09:32:00,45.0,43.0,30.21,SW,223,2.0,6.0,91,0.00,,,0.02,,2013-04-21 16:32:00,
2013-04-21 09:42:00,45.0,43.0,30.21,SW,223,2.0,6.0,91,0.00,,,0.02,,2013-04-21 16:42:00,
2013-04-21 09:52:00,45.0,43.0,30.21,SW,231,0.0,7.0,92,0.00,,,0.02,,2013-04-21 16:52:00,
2013-04-21 10:01:00,44.0,42.0,30.21,SSW,202,0.0,4.0,94,0.00,,,0.02,,2013-04-21 17:01:00,
2013-04-21 10:12:00,44.0,42.0,30.21,SSW,202,0.0,4.0,94,0.00,,,0.02,,2013-04-21 17:12:00,
2013-04-21 10:22:00,45.0,43.0,30.21,SSW,211,2.0,7.0,94,0.00,,,0.02,,2013-04-21 17:22:00,
2013-04-21 10:32:00,44.0,42.0,30.21,SSW,194,4.0,8.0,94,0.00,,,0.02,,2013-04-21 17:32:00,
2013-04-21 10:42:00,44.0,42.0,30.21,SSW,194,4.0,8.0,94,0.00,,,0.02,,2013-04-21 17:42:00,
2013-04-21 10:52:00,45.0,43.0,30.21,SW,233,1.0,5.0,94,0.00,,,0.02,,2013-04-21 17:52:00,
2013-04-21 11:02:00,45.0,43.0,30.22,West,264,1.0,7.0,94,0.00,,,0.02,,2013-04-21 18:02:00,
2013-04-21 11:11:00,45.0,43.0,30.22,West,264,1.0,7.0,94,0.00,,,0.02,,2013-04-21 18:11:00,
2013-04-21 11:21:00,45.0,43.0,30.22,SSW,198,2.0,5.0,94,0.00,,,0.02,,2013-04-21 18:21:00,
2013-04-21 11:32:00,44.0,43.0,30.22,South,176,1.0,5.0,97,0.02,,,0.04,,2013-04-21 18:32:00,
2013-04-21 11:42:00,44.0,43.0,30.22,South,176,1.0,5.0,97,0.02,,,0.04,,2013-04-21 18:42:00,
2013-04-21 11:52:00,45.0,44.0,30.22,SW,232,1.0,3.0,97,0.03,,,0.05,,2013-04-21 18:52:00,
2013-04-21 12:02:00,45.0,44.0,30.22,West,267,1.0,3.0,97,0.04,,,0.06,,2013-04-21 19:02:00,
2013-04-21 12:11:00,45.0,44.0,30.22,West,267,1.0,3.0,97,0.04,,,0.06,,2013-04-21 19:11:00,
2013-04-21 12:21:00,45.0,44.0,30.22,WNW,302,0.0,3.0,98,0.04,,,0.07,,2013-04-21 19:21:00,
2013-04-21 12:31:00,46.0,45.0,30.22,WNW,302,0.0,1.0,98,0.03,,,0.07,,2013-04-21 19:31:00,
2013-04-21 12:42:00,46.0,45.0,30.22,WNW,302,0.0,1.0,98,0.03,,,0.07,,2013-04-21 19:42:00,
2013-04-21 12:52:00,46.0,45.0,30.22,WNW,294,1.0,4.0,96,0.02,,,0.07,,2013-04-21 19:52:00,
2013-04-21 13:01:00,47.0,45.0,30.22,NW,322,2.0,5.0,94,0.01,,,0.07,,2013-04-21 20:01:00,
2013-04-21 13:11:00,47.0,45.0,30.22,NW,322,2.0,5.0,94,0.01,,,0.07,,2013-04-21 20:11:00,
2013-04-21 13:22:00,47.0,45.0,30.22,NW,322,2.0,5.0,94,0.01,,,0.07,,2013-04-21 20:22:00,
2013-04-21 13:31:00,46.0,45.0,30.23,North,5,0.0,4.0,95,0.00,,,0.07,,2013-04-21 20:31:00,
2013-04-21 13:41:00,46.0,45.0,30.23,North,5,0.0,4.0,95,0.00,,,0.07,,2013-04-21 20:41:00,
2013-04-21 13:52:00,46.0,45.0,30.22,NNE,25,0.0,4.0,96,0.01,,,0.08,,2013-04-21 20:52:00,
2013-04-21 14:02:00,46.0,44.0,30.23,ENE,77,1.0,3.0,94,0.01,,,0.08,,2013-04-21 21:02:00,
2013-04-21 14:12:00,46.0,44.0,30.23,ENE,77,1.0,3.0,94,0.01,,,0.08,,2013-04-21 21:12:00,
2013-04-21 14:21:00,46.0,44.0,30.23,ENE,65,0.0,3.0,94,0.01,,,0.08,,2013-04-21 21:21:00,
2013-04-21 14:32:00,47.0,46.0,30.24,ENE,65,0.0,2.0,95,0.02,,,0.09,,2013-04-21 21:32:00,
2013-04-21 14:43:00,47.0,46.0,30.24,ENE,65,0.0,2.0,95,0.02,,,0.09,,2013-04-21 21:43:00,
2013-04-21 14:53:00,47.0,45.0,30.24,ENE,67,1.0,5.0,93,0.01,,,0.09,,2013-04-21 21:53:00,
2013-04-21 15:02:00,48.0,46.0,30.24,NW,310,0.0,3.0,93,0.01,,,0.09,,2013-04-21 22:02:00,
2013-04-21 15:12:00,48.0,46.0,30.24,NW,310,0.0,3.0,93,0.01,,,0.09,,2013-04-21 22:12:00,
2013-04-21 15:22:00,49.0,46.0,30.24,West,265,2.0,4.0,89,0.01,,,0.09,,2013-04-21 22:22:00,
2013-04-21 15:32:00,49.0,46.0,30.23,North,360,2.0,5.0,88,0.00,,,0.08,,2013-04-21 22:32:00,
2013-04-21 15:42:00,49.0,46.0,30.23,North,360,2.0,5.0,88,0.00,,,0.08,,2013-04-21 22:42:00,
2013-04-21 15:52:00,49.0,46.0,30.24,NNW,338,1.0,4.0,88,0.00,,,0.08,,2013-04-21 22:52:00,
2013-04-21 16:02:00,49.0,43.0,30.23,West,281,2.0,5.0,81,0.00,,,0.08,,2013-04-21 23:02:00,
2013-04-21 16:12:00,49.0,43.0,30.23,West,281,2.0,5.0,81,0.00,,,0.08,,2013-04-21 23:12:00,
2013-04-21 16:22:00,51.0,45.0,30.23,North,355,3.0,6.0,81,0.00,,,0.08,,2013-04-21 23:22:00,
2013-04-21 16:32:00,51.0,45.0,30.22,NNW,331,3.0,6.0,79,0.00,,,0.08,,2013-04-21 23:32:00,
2013-04-21 16:42:00,51.0,45.0,30.22,NNW,331,3.0,6.0,79,0.00,,,0.08,,2013-04-21 23:42:00,
2013-04-21 16:52:00,52.0,45.0,30.23,NNW,339,3.0,5.0,77,0.00,,,0.08,,2013-04-21 23:52:00,
2013-04-21 17:01:00,50.0,45.0,30.24,ENE,62,2.0,7.0,82,0.00,,,0.08,,2013-04-22 00:01:00,
2013-04-21 17:11:00,50.0,45.0,30.24,ENE,62,2.0,7.0,82,0.00,,,0.08,,2013-04-22 00:11:00,
2013-04-21 17:21:00,49.0,44.0,30.23,ENE,63,0.0,3.0,83,0.00,,,0.08,,2013-04-22 00:21:00,
2013-04-21 17:31:00,51.0,47.0,30.23,ENE,63,1.0,2.0,85,0.00,,,0.08,,2013-04-22 00:31:00,
2013-04-21 17:42:00,51.0,47.0,30.23,ENE,63,1.0,2.0,85,0.00,,,0.08,,2013-04-22 00:42:00,
2013-04-21 17:51:00,50.0,45.0,30.24,ENE,63,1.0,3.0,84,0.00,,,0.08,,2013-04-22 00:51:00,
2013-04-21 18:01:00,50.0,44.0,30.24,NNW,330,1.0,4.0,81,0.00,,,0.08,,2013-04-22 01:01:00,
2013-04-21 18:11:00,50.0,44.0,30.24,NNW,330,1.0,4.0,81,0.00,,,0.08,,2013-04-22 01:11:00,
2013-04-21 18:21:00,50.0,45.0,30.24,NW,326,0.0,2.0,82,0.00,,,0.08,,2013-04-22 01:21:00,
2013-04-21 18:32:00,50.0,45.0,30.24,NW,326,0.0,2.0,82,0.00,,,0.07,,2013-04-22 01:32:00,
2013-04-21 18:41:00,50.0,45.0,30.24,NW,326,0.0,2.0,82,0.00,,,0.07,,2013-04-22 01:41:00,
2013-04-21 18:52:00,51.0,44.0,30.24,WSW,247,1.0,5.0,77,0.00,,,0.07,,2013-04-22 01:52:00,
2013-04-21 19:01:00,50.0,43.0,30.24,WNW,298,2.0,7.0,78,0.00,,,0.07,,2013-04-22 02:01:00,
2013-04-21 19:11:00,50.0,43.0,30.24,WNW,298,2.0,7.0,78,0.00,,,0.07,,2013-04-22 02:11:00,
2013-04-21 19:21:00,50.0,44.0,30.25,WNW,295,3.0,8.0,79,0.00,,,0.07,,2013-04-22 02:21:00,
2013-04-21 19:31:00,48.0,43.0,30.25,NW,317,0.0,7.0,82,0.00,,,0.07,,2013-04-22 02:31:00,
2013-04-21 19:41:00,48.0,43.0,30.25,NW,317,0.0,7.0,82,0.00,,,0.07,,2013-04-22 02:41:00,
2013-04-21 19:52:00,48.0,43.0,30.26,NNW,340,1.0,3.0,83,0.00,,,0.07,,2013-04-22 02:52:00,
2013-04-21 20:01:00,47.0,41.0,30.27,NNW,340,3.0,7.0,81,0.00,,,0.07,,2013-04-22 03:01:00,
2013-04-21 20:11:00,47.0,41.0,30.27,NNW,340,3.0,7.0,81,0.00,,,0.07,,2013-04-22 03:11:00,
2013-04-21 20:22:00,46.0,41.0,30.27,NNW,338,0.0,5.0,84,0.00,,,0.07,,2013-04-22 03:22:00,
2013-04-21 20:33:00,46.0,41.0,30.27,NNW,336,2.0,7.0,84,0.00,,,0.07,,2013-04-22 03:33:00,
2013-04-21 20:42:00,46.0,41.0,30.27,NNW,336,2.0,7.0,84,0.00,,,0.07,,2013-04-22 03:42:00,
2013-04-21 20:52:00,46.0,41.0,30.28,NW,320,1.0,7.0,83,0.00,,,0.07,,2013-04-22 03:52:00,
2013-04-21 21:02:00,45.0,40.0,30.29,NNW,338,1.0,7.0,84,0.00,,,0.07,,2013-04-22 04:02:00,
2013-04-21 21:12:00,45.0,40.0,30.29,NNW,338,1.0,7.0,84,0.00,,,0.07,,2013-04-22 04:12:00,
2013-04-21 21:23:00,45.0,40.0,30.29,North,10,0.0,1.0,84,0.00,,,0.07,,2013-04-22 04:23:00,
2013-04-21 21:32:00,45.0,41.0,30.30,NNW,333,1.0,3.0,85,0.00,,,0.07,,2013-04-22 04:32:00,
2013-04-21 21:43:00,45.0,41.0,30.30,NNW,333,1.0,3.0,85,0.00,,,0.07,,2013-04-22 04:43:00,
2013-04-21 21:52:00,44.0,40.0,30.31,NNW,331,1.0,5.0,87,0.00,,,0.07,,2013-04-22 04:52:00,
2013-04-21 22:02:00,44.0,41.0,30.31,NNW,339,0.0,3.0,88,0.00,,,0.07,,2013-04-22 05:02:00,
2013-04-21 22:11:00,44.0,41.0,30.31,NNW,339,0.0,3.0,88,0.00,,,0.07,,2013-04-22 05:11:00,
2013-04-21 22:22:00,44.0,41.0,30.31,NNW,339,0.0,3.0,88,0.00,,,0.07,,2013-04-22 05:22:00,
2013-04-21 22:32:00,43.0,40.0,30.32,NNW,338,0.0,0.0,89,0.00,,,0.07,,2013-04-22 05:32:00,
2013-04-21 22:42:00,43.0,40.0,30.32,NNW,338,0.0,0.0,89,0.00,,,0.07,,2013-04-22 05:42:00,
2013-04-21 22:52:00,43.0,40.0,30.32,NNW,339,0.0,1.0,90,0.00,,,0.07,,2013-04-22 05:52:00,
2013-04-21 23:02:00,43.0,40.0,30.32,NNW,339,0.0,1.0,90,0.00,,,0.07,,2013-04-22 06:02:00,
2013-04-21 23:11:00,43.0,40.0,30.32,NNW,339,0.0,1.0,90,0.00,,,0.07,,2013-04-22 06:11:00,
2013-04-21 23:21:00,43.0,40.0,30.32,NNW,339,0.0,1.0,90,0.00,,,0.07,,2013-04-22 06:21:00,
2013-04-21 23:32:00,42.0,40.0,30.33,North,350,0.0,1.0,91,0.00,,,0.07,,2013-04-22 06:32:00,
2013-04-21 23:42:00,42.0,40.0,30.33,North,350,0.0,1.0,91,0.00,,,0.07,,2013-04-22 06:42:00,
2013-04-21 23:52:00,42.0,40.0,30.34,ENE,71,0.0,4.0,91,0.00,,,0.07,,2013-04-22 06:52:00,